Regional Weather Roundup
Issued by NWS

Home | Current Version | Previous Version | Text Only | Print | Product List | Glossary Off
Versions: 1 2 3 4 5 6 7 8 9 10 11 12 13 14 15 16 17 18 19 20 21 22 23 24 25 26 27 28 29 30 31 32 33 34 35 36 37 38 39 40 41 42 43 44 45 46 47 48 49 50

249
ASUS43 KFSD 231202
RWRSD

WEATHER ROUNDUP FOR SOUTH DAKOTA
NATIONAL WEATHER SERVICE SIOUX FALLS SD
700 AM CDT THU MAR 23 2017

NOTE: "FAIR" INDICATES FEW OR NO CLOUDS BELOW 12,000 FEET WITH NO
SIGNIFICANT WEATHER AND/OR OBSTRUCTIONS TO VISIBILITY.


SDZ001>005-009-010-012>017-231300-
NORTHWEST AND NORTH CENTRAL SOUTH DAKOTA

CITY           SKY/WX    TMP DP  RH WIND       PRES   REMARKS
BUFFALO          N/A     42  37  82 N3        29.66R
FAITH            N/A     36  36 100 N8        29.69R
MOBRIDGE       MOCLDY    42  30  62 SE6       29.71F
$$

SDZ012>016-024>037-041>051-057-063-072>074-231300-
SOUTHWEST AND SOUTH CENTRAL SOUTH DAKOTA

CITY           SKY/WX    TMP DP  RH WIND       PRES   REMARKS
RAPID CTY ARPT CLOUDY    47  40  76 NW10      29.66S
PIERRE         CLOUDY    43  31  62 SE10      29.74F
CUSTER         CLOUDY    44  34  67 N5        29.71S
ELLSWORTH AFB  CLOUDY    45  43  91 NW10      29.65F
PHILIP         CLOUDY    42  35  76 SE6       29.68F
PINE RIDGE     PTCLDY    44  37  76 SW7       29.69F
SPEARFISH      FAIR      43  41  93 W6        29.72S
WINNER         FAIR      47  32  56 S18G31    29.74S
$$

SDZ004>011-016>023-039-040-231300-
NORTHEAST SOUTH DAKOTA

CITY           SKY/WX    TMP DP  RH WIND       PRES   REMARKS
ABERDEEN       PTCLDY    37  27  67 S13       29.86R
WATERTOWN      PTCLDY    35  26  69 S18       29.89F WCI  24
BROOKINGS      PTCLDY    35  26  69 SE16      29.92F WCI  25
SISSETON         N/A     35  29  78 S13       29.90F WCI  26
$$

SDZ017-020-022-023-036>040-048>070-231300-
SOUTHEAST SOUTH DAKOTA

CITY           SKY/WX    TMP DP  RH WIND       PRES   REMARKS
SIOUX FALLS    MOCLDY    39  26  59 SE16      29.94F
HURON          MOCLDY    39  28  64 SE16G28   29.84F
CHAMBERLAIN    CLOUDY    42  33  70 SE14      29.79F
MITCHELL       PTCLDY    41  29  62 SE20G26   29.87F
YANKTON        CLOUDY    43  27  52 SE14      29.92F
$$

ABBREVIATIONS USED IN REMARKS
   TC - TEMPERATURE IN CELSIUS
  WCI - WIND CHILL INDEX
   HX - HEAT INDEX
  VSB - VISIBILITY





USA.gov is the U.S. government's official web portal to all federal, state and local government web resources and services.